Terug naar catalogus

CSTP-2.2

ActiefWetenschapSSO
NORAD 61775·PAYLOAD·🇷🇺 Russia

Gelanceerd Nov 4, 2024 vanaf Vostochny Cosmodrome

Loading…

Volgende Passages (komende 24 uur)

TLE

VersSource: Space-Track

Epoch: Sep 14, 2026, 14:55 UTC

1 61775U 24199AS  26257.62163599  .00014125  00000-0  28141-3 0  9996
2 61775  97.2821 130.3783 0012213 319.0313  41.0018 15.46925392147980

Volg CSTP-2.2 in realtime met AllMySat

Download on the App Store